Terug naar catalogus

STARLINK-5762

ActiefCommunicatieVLEO
NORAD 55590·PAYLOAD·🇺🇸 United States

Gelanceerd Feb 12, 2023 vanaf Cape Canaveral Space Force Station

Loading…

Volgende Passages (komende 24 uur)

TLE

VersSource: CelesTrak SupGP

Epoch: Sep 15, 2026, 01:46 UTC

1 55590C 23020X   26258.07409722 -.00025254  00000+0 -91476-3 0  2582
2 55590  43.0047  15.5921 0001684 279.2339 219.9937 15.27588724    11

Volg STARLINK-5762 in realtime met AllMySat

Download on the App Store